| time (UTC) | temp F | wind direction | speed MPH | gust MPH | rain 1hr in | rain 24hr in | rain mn in | humidity % | barometer mb |
| 20260901201543 | 97 | 168 | 0.0 | 8.0 | 0.00 | 0.00 | 0.00 | 49 | 1014.6 |
| 20260901200040 | 96 | 196 | 0.0 | 5.0 | 0.00 | 0.00 | 0.00 | 49 | 1014.6 |
| 20260901194541 | 95 | 4 | 0.0 | 4.0 | 0.00 | 0.00 | 0.00 | 50 | 1014.7 |
| 20260901193041 | 95 | 229 | 2.0 | 8.0 | 0.00 | 0.00 | 0.00 | 49 | 1014.9 |
| 20260901191540 | 96 | 169 | 4.0 | 9.0 | 0.00 | 0.00 | 0.00 | 50 | 1015.0 |
| 20260901190049 | 96 | 236 | 0.0 | 7.0 | 0.00 | 0.00 | 0.00 | 49 | 1015.2 |
| 20260901184535 | 96 | 223 | 0.0 | 8.0 | 0.00 | 0.00 | 0.00 | 50 | 1015.5 |
| 20260901183032 | 96 | 221 | 1.0 | 4.0 | 0.00 | 0.00 | 0.00 | 50 | 1015.5 |
| 20260901181536 | 96 | 249 | 0.0 | 4.0 | 0.00 | 0.00 | 0.00 | 49 | 1015.6 |
| 20260901180032 | 94 | 241 | 0.0 | 4.0 | 0.00 | 0.00 | 0.00 | 53 | 1015.7 |
| 20260901174532 | 95 | 207 | 1.0 | 8.0 | 0.00 | 0.00 | 0.00 | 52 | 1015.8 |
| 20260901173032 | 94 | 167 | 0.0 | 6.0 | 0.00 | 0.00 | 0.00 | 54 | 1015.9 |
| 20260901171526 | 94 | 288 | 0.0 | 6.0 | 0.00 | 0.00 | 0.00 | 53 | 1016.0 |
| 20260901170024 | 93 | 247 | 2.0 | 9.0 | 0.00 | 0.00 | 0.00 | 55 | 1016.0 |
| 20260901164521 | 93 | 224 | 0.0 | 9.0 | 0.00 | 0.00 | 0.00 | 56 | 1016.2 |
| 20260901163035 | 92 | 243 | 1.0 | 8.0 | 0.00 | 0.00 | 0.00 | 55 | 1016.3 |
| 20260901161522 | 92 | 271 | 2.0 | 9.0 | 0.00 | 0.00 | 0.00 | 57 | 1016.4 |
| 20260901160014 | 91 | 265 | 0.0 | 11.0 | 0.00 | 0.00 | 0.00 | 59 | 1016.4 |
| 20260901154527 | 90 | 224 | 0.0 | 4.0 | 0.00 | 0.00 | 0.00 | 60 | 1016.5 |
| 20260901153017 | 89 | 238 | 1.0 | 11.0 | 0.00 | 0.00 | 0.00 | 62 | 1016.6 |
| 20260901151509 | 89 | 250 | 0.0 | 9.0 | 0.00 | 0.00 | 0.00 | 63 | 1016.7 |
| 20260901150006 | 88 | 226 | 2.0 | 9.0 | 0.00 | 0.00 | 0.00 | 62 | 1016.7 |
| 20260901144505 | 87 | 223 | 0.0 | 8.0 | 0.00 | 0.00 | 0.00 | 67 | 1016.7 |
| 20260901143059 | 86 | 266 | 0.0 | 3.0 | 0.00 | 0.00 | 0.00 | 69 | 1016.8 |
| 20260901141558 | 85 | 193 | 2.0 | 8.0 | 0.00 | 0.00 | 0.00 | 68 | 1016.9 |
| 20260901134602 | 85 | 228 | 0.0 | 4.0 | 0.00 | 0.00 | 0.00 | 69 | 1016.6 |
| 20260901133103 | 84 | 250 | 0.0 | 0.0 | 0.00 | 0.00 | 0.00 | 71 | 1016.6 |
| 20260901131552 | 83 | 206 | 0.0 | 0.0 | 0.00 | 0.00 | 0.00 | 74 | 1016.6 |
| 20260901130045 | 81 | 231 | 0.0 | 0.0 | 0.00 | 0.00 | 0.00 | 77 | 1016.9 |
| 20260901124542 | 78 | 117 | 0.0 | 0.0 | 0.00 | 0.00 | 0.00 | 83 | 1017.0 |
| 20260901123042 | 76 | 117 | 0.0 | 0.0 | 0.00 | 0.00 | 0.00 | 86 | 1016.9 |
| 20260901121549 | 75 | 231 | 0.0 | 0.0 | 0.00 | 0.00 | 0.00 | 88 | 1017.0 |
| 20260901120040 | 74 | 231 | 0.0 | 0.0 | 0.00 | 0.00 | 0.00 | 90 | 1016.8 |
| 20260901114538 | 73 | 175 | 0.0 | 0.0 | 0.00 | 0.00 | 0.00 | 91 | 1016.5 |
| 20260901113037 | 72 | 175 | 0.0 | 0.0 | 0.00 | 0.00 | 0.00 | 91 | 1016.4 |
| 20260901111533 | 73 | 175 | 0.0 | 0.0 | 0.00 | 0.00 | 0.00 | 90 | 1016.1 |
| 20260901110031 | 73 | 175 | 0.0 | 0.0 | 0.00 | 0.00 | 0.00 | 90 | 1016.0 |
| 20260901104537 | 73 | 175 | 0.0 | 0.0 | 0.00 | 0.00 | 0.00 | 89 | 1015.9 |
| 20260901103031 | 74 | 176 | 0.0 | 0.0 | 0.00 | 0.00 | 0.00 | 88 | 1015.7 |
| 20260901101524 | 74 | 176 | 0.0 | 0.0 | 0.00 | 0.00 | 0.00 | 87 | 1015.6 |
| 20260901100021 | 74 | 176 | 0.0 | 0.0 | 0.00 | 0.00 | 0.00 | 87 | 1015.6 |
| 20260901094523 | 75 | 176 | 0.0 | 0.0 | 0.00 | 0.00 | 0.00 | 86 | 1015.5 |
| 20260901093018 | 75 | 209 | 0.0 | 0.0 | 0.00 | 0.00 | 0.00 | 85 | 1015.3 |
| 20260901091515 | 76 | 209 | 0.0 | 0.0 | 0.00 | 0.00 | 0.00 | 83 | 1015.3 |
| 20260901090014 | 77 | 209 | 0.0 | 0.0 | 0.00 | 0.00 | 0.00 | 82 | 1015.2 |
| 20260901084511 | 77 | 230 | 0.0 | 0.0 | 0.00 | 0.00 | 0.00 | 80 | 1015.1 |
| 20260901083010 | 77 | 239 | 0.0 | 1.0 | 0.00 | 0.00 | 0.00 | 80 | 1015.0 |
| 20260901081508 | 77 | 246 | 0.0 | 0.0 | 0.00 | 0.00 | 0.00 | 79 | 1015.0 |
| 20260901080013 | 78 | 246 | 0.0 | 0.0 | 0.00 | 0.00 | 0.00 | 78 | 1014.7 |
| 20260901074507 | 78 | 231 | 0.0 | 0.0 | 0.00 | 0.00 | 0.00 | 77 | 1014.7 |
| 20260901073016 | 79 | 231 | 0.0 | 0.0 | 0.00 | 0.00 | 0.00 | 76 | 1014.6 |
| 20260901071508 | 79 | 231 | 0.0 | 7.0 | 0.00 | 0.00 | 0.00 | 75 | 1014.4 |
| 20260901070004 | 78 | 192 | 0.0 | 0.0 | 0.00 | 0.00 | 0.00 | 77 | 1014.3 |
| 20260901064503 | 78 | 206 | 0.0 | 3.0 | 0.00 | 0.00 | 0.00 | 79 | 1014.3 |
| 20260901063132 | 78 | 243 | 0.0 | 0.0 | 0.00 | 0.00 | 0.00 | 81 | 1014.5 |
| 20260901063000 | 78 | 233 | 0.0 | 0.0 | 0.00 | 0.00 | 0.00 | 81 | 1014.4 |
| 20260901061602 | 78 | 230 | 0.0 | 3.0 | 0.00 | 0.00 | 0.00 | 82 | 1014.6 |
| 20260901060056 | 78 | 152 | 0.0 | 0.0 | 0.00 | 0.00 | 0.00 | 82 | 1014.8 |
| 20260901054555 | 78 | 154 | 0.0 | 0.0 | 0.00 | 0.00 | 0.00 | 83 | 1015.0 |
| 20260901053100 | 78 | 148 | 0.0 | 0.0 | 0.00 | 0.00 | 0.00 | 83 | 1015.1 |
| 20260901051554 | 78 | 150 | 0.0 | 0.0 | 0.00 | 0.00 | 0.00 | 83 | 1015.3 |
| 20260901050050 | 78 | 242 | 0.0 | 0.0 | 0.00 | 0.00 | 0.00 | 83 | 1015.4 |
| 20260901044548 | 78 | 241 | 0.0 | 0.0 | 0.00 | 0.00 | 0.00 | 82 | 1015.5 |
| 20260901043047 | 78 | 179 | 0.0 | 0.0 | 0.00 | 0.00 | 0.00 | 83 | 1015.5 |
| 20260901041544 | 79 | 179 | 0.0 | 0.0 | 0.00 | 0.00 | 0.00 | 82 | 1015.5 |
| 20260901040043 | 79 | 207 | 0.0 | 0.0 | 0.00 | 0.00 | 0.00 | 82 | 1015.6 |
| 20260901034548 | 79 | 207 | 0.0 | 0.0 | 0.00 | 0.00 | 0.00 | 81 | 1015.5 |
| 20260901033044 | 80 | 238 | 0.0 | 0.0 | 0.00 | 0.00 | 0.00 | 79 | 1015.7 |
| 20260901031547 | 80 | 238 | 0.0 | 0.0 | 0.00 | 0.00 | 0.00 | 78 | 1015.7 |
| 20260901030040 | 81 | 238 | 0.0 | 0.0 | 0.00 | 0.00 | 0.00 | 79 | 1015.7 |
| 20260901024539 | 81 | 238 | 0.0 | 0.0 | 0.00 | 0.00 | 0.00 | 76 | 1015.7 |
| 20260901023040 | 81 | 238 | 0.0 | 0.0 | 0.00 | 0.00 | 0.00 | 76 | 1015.7 |
| 20260901021548 | 82 | 238 | 0.0 | 0.0 | 0.00 | 0.00 | 0.00 | 75 | 1015.7 |
| 20260901020037 | 82 | 238 | 0.0 | 0.0 | 0.00 | 0.00 | 0.00 | 73 | 1015.6 |
| 20260901014538 | 82 | 238 | 0.0 | 0.0 | 0.00 | 0.00 | 0.00 | 73 | 1015.5 |
| 20260901013055 | 83 | 238 | 0.0 | 0.0 | 0.00 | 0.00 | 0.00 | 72 | 1015.4 |
| 20260901011537 | 84 | 238 | 0.0 | 0.0 | 0.00 | 0.00 | 0.00 | 71 | 1015.3 |
| 20260901010047 | 85 | 238 | 0.0 | 0.0 | 0.00 | 0.00 | 0.00 | 70 | 1015.0 |
| 20260901004538 | 85 | 238 | 0.0 | 0.0 | 0.00 | 0.00 | 0.00 | 68 | 1014.7 |
| 20260901003035 | 86 | 242 | 0.0 | 0.0 | 0.00 | 0.00 | 0.00 | 66 | 1014.5 |
| 20260901001536 | 86 | 247 | 0.0 | 0.0 | 0.00 | 0.00 | 0.00 | 65 | 1014.4 |
| 20260901000034 | 87 | 245 | 0.0 | 0.0 | 0.00 | 0.00 | 0.00 | 63 | 1014.3 |
| 20260831234534 | 88 | 170 | 0.0 | 0.0 | 0.00 | 0.00 | 0.00 | 62 | 1014.1 |
| 20260831233031 | 88 | 207 | 0.0 | 2.0 | 0.00 | 0.00 | 0.00 | 61 | 1014.1 |
| 20260831231532 | 89 | 235 | 3.0 | 10.0 | 0.00 | 0.00 | 0.00 | 60 | 1014.1 |
| 20260831230033 | 90 | 174 | 1.0 | 9.0 | 0.00 | 0.00 | 0.00 | 59 | 1014.1 |
| 20260831224530 | 90 | 233 | 1.0 | 9.0 | 0.00 | 0.00 | 0.00 | 58 | 1014.3 |
| 20260831223129 | 91 | 234 | 0.0 | 7.0 | 0.00 | 0.00 | 0.00 | 56 | 1014.5 |
| 20260831221525 | 92 | 245 | 0.0 | 6.0 | 0.00 | 0.00 | 0.00 | 55 | 1014.7 |
| 20260831220023 | 92 | 186 | 0.0 | 1.0 | 0.00 | 0.00 | 0.00 | 54 | 1014.8 |
| 20260831214522 | 93 | 268 | 0.0 | 0.0 | 0.00 | 0.00 | 0.00 | 55 | 1014.9 |
| 20260831213031 | 92 | 130 | 0.0 | 0.0 | 0.00 | 0.00 | 0.00 | 56 | 1015.0 |
| 20260831211521 | 92 | 248 | 1.0 | 3.0 | 0.00 | 0.00 | 0.00 | 54 | 1015.1 |
| 20260831210018 | 93 | 247 | 1.0 | 7.0 | 0.00 | 0.00 | 0.00 | 53 | 1015.1 |
| 20260831204518 | 93 | 292 | 0.0 | 1.0 | 0.00 | 0.00 | 0.00 | 53 | 1015.3 |
| 20260831203015 | 96 | 194 | 0.0 | 4.0 | 0.00 | 0.00 | 0.00 | 49 | 1015.4 |